Theta_e
300 300 300 300 300 300 300 300 301 301 301 292 290 295 297 296 290 304 307 311 310 302 294 297 293 292 294 297 296 294 293 291 290 290 290 289 291 290 290 289 290 289 291 289 287 287 286 286 286 284 285 288 293 289 290 289 289 289 284 287 286 291 279 277 282 285 286 288 290 288 285 286 285 285 284 284 283 285 284 283 284 280 281 280 279 277 281
299 299 299 299 299 299 299 300 300 300 300 292 291 294 294 295 295 299 307 310 307 299 289 289 291 292 296 295 294 294 293 291 290 289 289 293 290 291 289 290 292 289 289 289 288 287 285 287 290 287 287 286 288 286 288 292 286 291 286 287 286 282 281 282 279 280 282 282 283 284 283 284 281 281 283 285 285 285 283 281 279 277 280 282 278 274 280
299 299 299 299 299 299 299 299 299 299 300 297 292 289 291 289 290 295 299 307 304 294 297 294 290 292 292 293 292 294 294 293 295 293 291 293 293 291 289 292 288 288 288 286 287 286 288 285 286 286 285 286 285 285 286 288 286 289 288 292 287 283 280 282 277 274 272 272 272 273 276 278 280 280 281 283 284 284 283 279 280 277 282 283 279 279 286
300 300 299 299 299 299 299 299 299 299 299 299 289 287 288 285 276 282 291 298 299 298 299 296 293 288 289 289 292 294 291 293 290 293 292 296 290 292 289 286 287 285 285 285 287 286 284 285 284 285 283 284 284 286 285 287 287 289 292 285 287 283 284 283 283 281 278 281 283 285 285 283 282 283 284 285 285 284 284 283 280 277 281 280 282 283 283
301 300 300 299 298 299 299 298 298 299 299 299 289 286 285 281 278 281 279 290 292 292 296 294 295 289 294 287 290 288 289 289 290 292 288 288 290 289 291 286 286 284 285 285 286 286 287 285 285 285 285 285 286 285 285 284 286 291 289 288 282 282 283 285 285 284 284 286 285 287 286 283 285 284 284 286 285 285 283 280 278 284 280 275 283 284 282
301 300 300 299 299 298 298 298 298 298 298 299 288 281 284 278 277 281 285 285 280 284 286 291 291 293 293 288 288 284 284 285 284 287 289 288 288 287 286 289 290 289 287 286 283 286 287 286 284 286 284 285 280 285 283 284 285 287 284 284 284 281 282 285 285 284 286 287 286 287 285 284 283 283 283 282 283 283 282 282 284 284 279 276 283 284 282
300 301 300 300 300 299 299 297 297 298 299 295 282 279 279 281 280 280 283 280 283 283 285 286 288 289 291 288 289 285 285 283 285 284 283 285 284 288 284 286 286 287 287 286 285 286 282 280 283 280 278 281 281 278 282 282 280 280 279 281 281 279 278 282 283 281 282 283 283 283 281 281 281 282 283 284 283 282 282 281 282 282 281 283 283 283 282
300 300 301 300 300 299 299 299 298 299 300 290 282 281 280 279 282 279 282 281 282 284 284 284 285 285 289 286 288 289 287 285 286 285 285 281 283 286 286 285 283 282 281 285 285 285 284 281 281 282 281 279 281 278 282 280 279 279 278 282 279 283 277 284 278 278 278 282 282 281 281 281 279 280 281 281 281 280 280 281 281 281 281 282 282 282 282
301 301 300 301 300 300 299 298 298 300 301 286 283 280 282 285 286 286 280 278 279 279 280 281 282 281 282 284 286 288 287 286 286 285 288 286 283 282 281 282 283 283 283 283 283 284 281 281 282 281 282 279 282 280 280 281 276 279 275 280 278 282 276 281 276 275 276 280 280 280 279 278 277 277 278 278 278 276 278 277 280 279 278 280 280 278 279
300 300 300 300 300 300 300 299 299 299 300 287 284 280 285 282 281 285 282 276 281 278 280 278 279 276 278 282 283 284 282 280 282 282 286 285 285 284 283 283 283 282 282 282 283 283 283 283 284 285 284 286 284 284 283 284 281 279 277 282 278 280 278 276 276 274 274 279 279 277 276 275 272 273 277 278 279 280 280 281 281 281 280 277 275 276 277
300 300 300 299 300 301 300 300 299 300 294 285 282 281 282 282 282 281 280 274 275 276 278 276 276 278 276 278 277 278 278 279 280 279 280 283 283 285 284 283 281 279 281 284 287 287 286 287 287 286 285 284 283 283 284 284 284 283 281 279 279 280 278 276 279 272 273 277 275 274 271 266 268 279 280 280 278 278 276 276 277 278 277 276 275 275 274
301 300 300 299 300 300 300 300 300 301 297 290 288 284 283 282 281 282 280 276 276 277 275 274 276 277 276 277 276 276 276 277 279 282 278 280 281 281 282 282 283 277 286 284 286 287 286 285 284 284 283 281 281 281 281 280 280 284 283 280 278 278 278 276 277 271 271 274 270 269 265 267 277 277 277 276 276 277 277 274 275 272 276 274 275 276 275
301 301 301 300 300 300 300 300 300 299 300 292 290 285 285 286 284 281 281 278 273 275 274 275 276 276 276 276 276 275 277 277 278 280 280 280 279 279 281 281 281 283 286 284 286 284 280 277 279 280 279 281 280 281 279 279 279 281 282 282 279 275 275 274 269 268 261 263 265 262 263 271 272 277 277 277 277 276 275 274 277 276 277 277 276 279 278
302 302 302 302 301 301 300 300 300 300 301 296 290 287 286 287 284 282 281 278 276 279 278 276 276 276 276 276 275 276 277 276 276 276 275 277 277 277 279 284 284 285 283 284 281 280 275 278 269 274 274 276 273 274 276 279 280 279 279 281 282 279 277 269 266 267 266 265 265 266 270 271 273 273 274 275 274 274 272 268 272 276 276 277 276 278 279
302 302 301 302 301 301 302 301 300 300 300 299 292 288 288 288 287 283 284 281 275 278 279 272 277 276 276 275 276 274 275 274 274 274 276 276 276 277 280 281 280 280 281 278 276 277 271 267 263 266 262 263 263 266 269 265 273 275 277 277 279 278 274 271 269 265 272 262 264 263 263 262 266 272 272 277 275 275 277 274 271 278 276 277 278 277 278
302 302 301 301 301 301 301 301 301 300 300 301 293 289 289 291 288 287 283 280 278 272 277 280 279 276 275 275 277 275 274 274 274 272 273 274 274 277 278 277 276 279 280 277 277 270 264 264 261 260 260 259 262 260 258 266 265 269 274 275 275 276 277 273 272 269 272 268 266 265 264 267 273 271 274 274 276 278 279 273 268 276 275 274 276 277 278
301 302 301 301 301 301 301 301 301 301 301 300 292 291 289 291 289 287 284 282 280 275 280 279 280 279 276 276 279 277 277 274 275 270 268 272 276 274 272 273 274 279 278 275 275 271 265 262 259 259 259 260 258 262 261 262 261 263 268 270 273 274 275 274 271 270 270 269 267 265 270 266 272 273 275 275 277 279 273 264 266 272 274 274 275 275 276
301 302 301 301 301 301 301 301 301 301 300 301 294 290 287 291 292 289 286 284 281 280 282 281 279 277 276 278 277 279 277 273 273 273 273 271 268 272 272 271 272 276 279 272 272 267 267 262 265 266 264 270 265 266 260 262 255 259 262 266 261 264 267 269 269 271 271 272 269 270 270 274 274 275 275 273 276 272 262 263 266 273 273 273 273 274 275
301 301 301 301 301 301 301 301 302 301 301 301 296 292 291 292 292 292 288 285 283 278 284 285 285 281 280 281 278 278 278 278 276 273 269 268 268 269 271 270 276 268 273 269 265 264 267 267 266 262 262 261 266 260 266 263 263 265 266 266 263 261 258 261 265 266 269 270 268 269 269 273 274 274 274 275 271 261 262 268 271 271 271 272 273 274 275
301 301 301 301 301 301 301 301 301 301 301 301 298 290 293 293 293 292 288 283 285 282 285 283 283 281 283 281 278 277 277 277 278 275 269 269 270 273 273 269 273 266 266 271 268 267 264 266 267 263 261 262 263 270 263 266 269 266 267 267 266 263 259 258 262 264 264 266 265 265 262 270 271 273 270 271 265 266 270 270 270 272 272 272 272 274 275
301 300 301 301 301 300 300 300 301 301 300 301 299 292 291 294 293 293 293 289 285 281 282 287 284 285 284 283 283 283 281 278 278 276 277 277 276 273 265 265 269 264 265 268 266 266 264 260 259 262 266 266 266 265 263 257 261 269 271 269 267 269 262 258 263 268 265 263 262 261 268 271 273 270 265 268 271 274 275 273 274 275 274 273 272 273 275
300 300 300 300 300 300 300 300 300 300 300 300 299 294 289 293 293 293 293 290 286 283 284 285 286 287 288 288 287 286 285 284 284 284 279 277 278 278 273 268 263 259 261 265 262 262 260 257 259 257 260 261 261 263 260 259 263 263 262 266 262 271 270 270 267 269 265 262 266 271 271 271 274 273 274 276 277 277 274 274 275 274 275 274 273 275 275
299 300 299 300 300 300 300 300 300 299 300 300 298 291 289 292 291 294 289 285 286 286 287 285 286 285 288 288 287 287 288 289 286 283 284 281 277 279 277 275 272 274 271 275 271 268 267 263 266 265 259 262 267 263 259 267 260 261 264 271 271 273 273 272 271 269 273 274 275 276 274 273 275 276 276 276 276 276 275 274 273 274 275 275 275 275 276
299 300 300 300 299 300 300 300 300 300 300 300 299 290 289 291 290 288 286 287 284 281 284 285 282 280 283 283 287 287 287 285 286 287 288 287 278 276 277 279 279 276 271 276 278 275 271 269 272 271 269 271 268 267 267 265 266 266 264 267 270 272 273 270 269 273 269 266 275 273 274 276 275 276 277 277 276 276 275 274 274 275 275 275 275 275 275
299 299 300 299 299 299 299 300 299 299 299 300 299 295 290 288 290 289 285 280 281 280 275 280 282 286 289 290 290 287 288 289 290 287 286 287 285 280 278 280 282 279 277 278 280 275 270 271 270 268 269 274 272 268 273 269 269 272 265 269 268 269 274 271 272 271 269 270 274 275 275 275 276 276 276 276 277 277 275 275 275 275 274 272 273 272 272
299 299 299 300 299 299 299 300 299 299 299 299 298 290 288 289 292 292 289 288 285 282 277 276 280 284 285 286 285 287 288 288 287 287 287 287 287 286 284 281 280 282 280 280 278 277 271 267 270 270 269 270 277 271 270 273 272 273 270 270 274 273 274 262 268 269 272 274 275 275 275 275 276 277 277 277 277 277 276 275 272 271 271 270 269 270 270
299 299 300 300 299 299 299 298 299 299 299 298 296 289 289 289 292 290 287 286 283 277 280 276 281 279 280 283 285 284 285 287 286 286 286 286 286 286 284 283 281 280 280 279 277 276 271 272 272 271 274 273 278 271 273 269 272 269 269 274 275 273 270 272 270 269 269 269 272 274 267 269 274 275 275 275 274 274 273 271 270 268 268 267 267 267 267
299 298 298 299 299 299 298 299 299 299 299 298 296 289 288 288 290 291 292 289 284 278 277 275 276 278 281 274 281 283 286 287 286 285 284 284 284 284 283 283 282 281 280 279 274 273 273 271 271 276 276 272 272 270 276 276 275 272 272 274 276 273 273 272 270 269 269 274 276 276 275 275 276 276 276 271 269 271 271 270 268 266 265 265 265 265 265
298 298 298 299 299 298 299 299 299 299 298 297 286 285 286 289 291 293 293 290 288 284 282 282 280 277 275 278 281 282 283 285 284 284 284 283 283 283 283 283 282 282 282 280 279 278 275 275 278 275 271 276 271 269 271 267 269 268 272 276 276 277 277 276 275 275 276 277 277 277 275 274 276 277 272 266 267 268 267 265 265 265 264 264 264 265 264
298 298 298 299 298 298 298 298 298 298 297 290 285 285 282 284 290 291 293 292 289 286 280 277 274 277 279 277 276 280 281 283 283 283 282 282 282 282 282 282 282 284 282 280 279 275 278 277 278 279 279 280 273 271 269 270 269 271 276 276 277 277 277 278 278 276 275 278 278 277 276 276 274 269 265 265 265 266 266 265 264 264 264 264 263 263 263
298 298 299 299 299 299 298 298 298 299 297 285 285 280 278 276 284 291 294 292 291 286 282 281 277 280 276 279 278 279 280 282 281 281 281 282 282 282 283 283 282 282 279 280 279 279 280 276 277 278 280 279 278 271 271 270 269 271 275 276 277 277 276 277 278 278 278 278 278 276 271 272 270 268 266 263 264 264 264 263 264 264 264 263 262 262 262
298 298 298 298 298 298 297 298 299 298 291 285 284 283 283 282 285 290 294 293 290 284 280 275 275 275 274 277 276 277 280 281 282 281 280 282 280 282 281 282 280 283 282 279 280 279 277 279 277 278 276 280 279 268 271 271 269 271 276 276 277 276 276 276 276 276 275 269 270 272 273 273 267 270 270 264 263 264 262 263 263 262 262 262 261 261 260
298 297 298 299 298 298 298 298 299 296 289 289 294 294 294 294 294 293 294 291 287 283 283 278 273 274 273 272 272 272 278 277 275 280 278 283 279 279 277 281 281 281 285 280 277 275 279 279 279 276 278 280 274 273 272 270 272 276 277 277 277 277 276 276 273 267 265 264 269 272 274 274 266 263 263 264 263 262 261 261 261 260 258 257 256 259 259
297 297 297 297 297 299 297 298 297 297 295 288 283 285 290 295 294 294 291 288 284 283 281 276 272 272 271 271 267 270 280 277 276 279 272 279 277 278 275 279 280 277 280 277 279 278 278 278 275 274 276 276 278 272 269 273 276 276 277 277 277 276 272 270 266 265 263 262 262 262 263 262 263 262 262 262 261 262 261 260 258 257 256 257 257 258 258
296 298 298 297 297 297 296 295 291 288 285 286 286 287 291 295 294 294 291 286 279 277 277 276 276 270 270 268 268 270 275 275 272 277 274 274 280 276 276 272 277 274 276 282 277 277 275 276 278 272 271 275 273 269 272 274 276 276 276 276 274 268 266 267 266 261 261 261 259 261 260 260 260 260 260 260 260 260 258 257 257 256 256 257 257 257 256
296 296 296 297 297 296 291 292 289 285 283 284 282 291 295 295 295 291 288 285 283 278 276 275 276 272 273 269 268 271 279 274 274 275 275 272 271 276 276 275 270 275 280 277 273 277 274 279 274 269 275 270 269 272 273 275 275 275 275 275 267 264 266 265 262 258 258 258 257 259 258 258 259 260 259 259 259 257 257 256 256 256 255 256 256 256 255
296 296 296 295 292 287 285 284 288 285 285 289 290 295 295 294 289 287 285 283 283 281 277 274 271 272 274 270 270 271 276 266 274 269 268 268 270 271 272 271 270 276 274 272 273 272 276 281 274 271 271 269 271 276 277 276 275 275 274 265 260 260 259 258 258 257 255 255 256 257 257 257 257 258 258 258 257 256 254 254 255 254 253 253 254 253 253
295 295 289 285 283 280 280 282 279 284 294 294 294 288 286 287 279 281 281 278 281 281 277 276 274 274 275 272 269 278 277 272 276 271 266 266 270 266 271 271 271 275 267 270 273 279 273 271 271 270 271 275 274 268 268 266 262 260 259 259 259 258 258 257 256 256 256 258 258 257 258 258 259 258 257 256 255 254 255 255 254 254 254 253 253 254 253
292 288 285 284 281 279 280 279 289 294 291 288 284 280 278 280 277 274 274 275 278 274 278 275 274 277 275 273 273 280 276 271 269 270 270 276 271 266 269 266 273 274 266 264 268 278 267 268 269 270 268 273 273 273 262 260 259 258 258 257 258 258 257 256 257 256 256 257 256 256 257 259 259 257 256 255 255 255 255 254 254 253 252 252 252 252 252
285 281 280 279 279 281 284 289 295 288 285 281 279 278 273 278 275 270 274 268 270 273 276 271 278 277 277 274 273 273 280 273 269 269 271 270 276 266 269 265 270 268 263 265 266 271 266 261 263 264 267 270 272 263 257 258 256 256 255 255 256 257 257 256 255 256 256 255 256 255 255 255 254 254 252 253 253 253 253 252 253 252 252 251 252 252 251
284 281 279 278 278 280 284 286 283 279 279 275 274 274 272 269 272 271 273 268 266 264 268 272 274 273 276 277 277 273 279 275 265 268 270 267 275 271 265 265 272 265 263 263 268 262 258 254 255 259 266 271 269 256 255 254 254 253 254 253 254 254 254 254 255 255 253 253 252 253 252 251 250 250 252 251 251 251 251 250 250 251 250 250 250 251 253
285 283 281 281 279 282 284 282 280 276 276 276 271 268 271 269 270 266 270 268 268 265 263 271 271 273 272 276 275 278 273 270 267 273 270 267 275 269 265 264 268 265 262 266 263 260 262 260 257 255 261 262 252 251 253 252 252 251 252 253 253 253 253 253 253 253 253 252 252 252 252 251 250 251 251 251 250 250 251 251 250 250 250 250 251 251 251
289 284 283 279 279 278 280 275 276 275 270 270 268 265 269 264 268 268 266 268 263 262 263 267 268 278 275 274 270 272 273 275 271 270 268 267 275 271 265 265 263 261 265 261 261 261 258 258 255 263 265 255 250 250 250 251 252 252 252 253 254 253 253 252 252 252 252 252 250 251 252 251 251 251 250 250 249 248 249 249 250 250 250 250 250 250 250
283 283 278 276 276 276 277 268 277 269 268 268 267 264 266 264 265 264 261 264 260 262 268 270 270 272 269 273 273 271 270 274 275 265 265 270 268 265 266 262 264 267 264 262 261 259 259 255 260 266 255 249 251 250 251 251 250 251 251 252 252 252 254 252 253 252 251 252 251 251 250 251 250 251 250 249 248 248 249 248 249 250 250 250 250 250 250
278 275 274 273 271 275 272 266 274 268 266 267 271 265 265 264 267 267 268 267 267 268 270 269 271 270 268 266 268 270 274 265 273 269 267 269 265 266 263 263 263 261 263 261 258 257 255 259 262 257 251 250 252 250 250 250 250 250 250 250 250 251 251 251 250 251 250 250 250 250 249 250 250 250 249 249 249 248 248 248 249 250 250 250 250 250 251
276 273 272 269 267 272 269 265 267 263 267 269 267 265 269 270 270 269 266 263 265 263 269 271 271 269 264 263 269 269 267 267 267 268 268 266 263 263 265 264 265 262 259 257 255 257 262 265 268 266 254 253 252 251 249 249 249 249 249 248 249 249 249 248 248 249 250 251 250 250 250 250 249 250 250 251 250 249 248 249 250 250 250 249 249 249 250
276 275 271 270 267 269 270 265 265 266 266 266 268 271 273 271 267 268 262 261 266 266 266 265 270 268 268 263 263 263 261 262 263 266 266 262 263 264 269 264 261 261 259 257 254 254 257 265 257 250 251 251 250 248 248 249 248 248 248 248 248 248 248 248 248 248 249 249 249 249 249 249 249 249 249 249 249 250 250 250 250 250 249 249 249 249 249
272 274 272 266 265 268 266 267 263 259 257 257 257 256 256 260 266 263 260 259 264 268 270 269 267 266 267 265 264 265 262 261 262 265 267 265 267 262 262 261 260 258 255 256 261 263 265 254 248 251 250 250 249 248 247 248 247 246 247 247 247 247 247 247 247 248 247 247 247 248 248 248 248 248 249 249 248 249 249 249 249 248 248 248 248 249 249
272 271 270 268 266 266 264 262 263 267 259 256 256 259 261 268 268 262 258 259 265 268 266 267 265 267 264 267 267 268 265 267 263 264 267 264 262 261 260 256 256 255 258 259 264 258 254 250 249 249 248 248 248 247 247 247 247 246 247 246 246 247 247 247 247 247 247 247 247 247 248 249 249 249 248 248 248 248 250 249 248 248 248 248 248 249 249
270 266 260 258 261 262 259 260 262 262 258 256 259 260 258 262 260 257 260 259 259 262 268 273 273 270 266 265 262 265 265 266 265 267 263 261 262 259 257 254 254 257 259 254 249 247 248 248 248 247 246 246 247 246 246 246 248 247 247 246 246 246 246 246 247 247 248 248 247 247 247 247 247 248 247 247 248 249 248 247 247 247 248 248 248 249 250
268 266 262 260 262 263 265 264 265 261 257 262 260 258 259 260 260 259 261 260 263 265 264 263 266 263 264 265 264 262 263 264 262 263 263 263 260 258 257 259 263 259 253 250 250 250 250 248 247 245 243 245 249 246 246 248 248 248 248 247 247 247 248 247 246 247 247 248 246 248 246 246 247 247 248 248 248 247 246 247 248 247 247 248 249 249 250
267 264 262 259 258 259 262 263 263 263 264 264 262 261 262 261 260 258 262 264 267 268 266 261 263 263 263 262 264 262 263 263 263 259 257 258 254 257 255 258 257 254 253 250 249 247 246 243 244 246 246 247 248 247 247 245 243 241 241 242 242 243 244 247 247 247 246 246 246 244 245 245 246 245 246 246 245 244 244 246 249 248 249 249 249 251 252
Wind_Speed
1 3 4 4 4 5 6 8 10 12 15 4 4 2 2 1 3 0 2 4 7 7 7 4 3 4 2 2 3 1 2 3 2 0 1 1 3 0 2 4 4 4 6 4 5 5 5 5 6 3 3 5 7 4 2 5 4 1 2 3 1 5 0 0 9 5 5 7 8 3 2 2 2 3 1 2 5 9 10 11 7 10 9 10 8 11 3
2 2 2 2 2 3 5 6 8 10 10 2 3 1 1 2 0 2 1 1 1 6 9 8 7 4 3 3 3 2 2 1 2 2 2 3 1 3 2 2 5 4 3 2 5 4 5 5 12 6 5 5 1 7 6 4 1 1 5 2 3 1 3 2 6 4 7 5 4 4 2 2 1 2 4 6 7 5 7 2 2 4 6 11 9 14 4
4 3 2 2 2 3 4 4 6 8 10 5 1 2 1 1 2 1 3 1 2 6 2 5 4 6 7 5 7 7 2 5 8 4 4 1 3 1 3 3 0 2 1 1 1 1 8 4 3 1 1 2 2 7 7 5 2 1 1 2 1 3 3 5 9 10 12 12 10 7 6 3 1 2 3 3 3 8 4 7 2 9 5 14 11 9 6
5 4 2 3 3 3 4 6 6 7 9 8 4 1 2 1 2 1 3 3 2 3 1 2 4 4 4 6 7 7 9 3 0 7 3 6 3 4 4 0 2 1 2 2 2 4 2 6 4 1 1 2 2 2 5 5 2 2 3 3 1 1 1 3 8 11 12 11 8 1 0 2 6 3 3 7 5 3 4 6 9 11 12 12 9 11 13
6 4 3 1 2 2 3 3 5 6 8 7 1 1 2 1 3 3 2 2 3 3 2 2 3 3 3 5 1 9 8 5 3 6 1 2 3 1 6 3 3 3 4 5 5 5 8 4 3 5 7 2 2 3 2 2 2 5 3 2 4 1 5 8 11 12 13 14 14 13 8 12 10 11 11 10 10 10 13 10 14 11 11 16 9 16 14
5 5 4 3 3 2 2 4 4 6 6 7 2 1 1 2 2 3 1 3 4 3 8 5 7 5 2 3 2 2 1 0 2 3 0 1 0 3 3 2 8 7 7 3 4 1 5 1 7 3 3 2 3 5 1 2 4 1 1 0 3 3 9 10 12 15 12 12 13 12 12 11 11 13 12 12 11 10 14 18 15 10 10 14 11 11 15
6 7 6 5 5 3 3 2 2 2 5 6 2 2 3 3 1 1 2 3 2 1 1 4 2 6 8 3 5 10 10 11 6 1 3 1 2 1 5 3 4 6 6 5 4 4 6 6 3 3 2 5 3 3 3 1 4 3 1 1 1 1 5 7 9 13 12 13 13 10 10 7 7 8 9 9 11 15 15 15 13 14 17 16 17 18 20
8 7 7 6 5 4 3 3 2 5 5 5 4 1 1 1 0 1 3 2 2 2 3 1 2 4 4 7 8 9 7 13 7 3 5 4 5 2 8 4 7 6 3 2 6 4 5 3 9 4 2 5 1 4 4 2 1 2 0 0 4 2 6 3 1 2 4 5 6 4 5 6 11 8 8 10 13 15 14 15 18 18 16 16 19 20 20
8 8 8 8 8 7 6 4 4 9 6 2 2 2 1 0 1 1 2 1 1 3 1 2 2 1 3 8 6 4 4 4 4 2 3 2 2 3 2 4 5 1 2 1 2 4 2 3 1 1 2 4 1 2 3 6 4 3 1 0 3 1 5 3 1 7 12 8 11 10 5 5 9 11 13 19 19 17 14 15 12 13 18 19 17 14 13
10 10 10 10 8 8 7 5 3 8 9 3 0 2 1 1 1 1 1 0 0 4 1 0 3 5 3 2 2 2 1 2 1 1 4 7 9 6 4 1 2 3 2 2 2 2 3 2 2 5 4 4 5 3 6 5 3 4 1 1 1 1 1 2 4 9 9 6 3 4 2 8 11 14 20 21 19 18 19 17 15 18 15 13 13 12 1
12 11 10 11 10 10 9 8 7 10 7 4 2 1 1 1 1 2 2 3 4 4 4 3 4 3 4 2 1 2 2 4 4 3 2 4 1 6 3 3 3 2 4 3 4 5 5 4 6 5 6 7 7 5 7 9 9 8 4 1 2 1 3 5 2 6 3 6 4 1 4 10 14 5 3 7 15 15 17 15 12 6 3 4 1 3 4
13 12 12 11 11 11 11 10 10 11 9 6 5 3 3 3 4 3 1 3 2 3 4 5 5 2 2 1 2 0 1 1 1 3 3 2 2 2 1 2 3 3 1 2 2 3 5 3 3 3 6 7 8 9 9 10 10 7 8 7 6 7 8 9 3 4 6 5 3 11 17 15 4 1 3 1 3 4 10 5 2 2 5 6 6 5 5
14 15 14 12 12 12 12 11 11 11 11 6 5 3 2 2 4 3 2 2 3 3 2 3 0 1 1 1 1 2 4 2 0 2 3 5 6 2 2 2 2 3 3 1 1 3 3 7 6 6 8 7 7 8 9 10 12 12 10 11 8 7 9 6 4 3 3 2 4 9 12 0 4 4 3 3 3 1 4 4 4 3 6 6 6 5 5
15 14 13 15 13 12 13 13 12 12 13 10 6 5 5 4 4 3 3 3 4 3 5 5 5 7 6 6 3 3 1 4 3 2 2 3 4 2 3 1 2 1 2 1 1 1 2 1 3 2 4 2 1 4 7 10 12 14 12 12 12 14 6 3 7 4 10 6 10 15 7 14 12 10 3 6 4 4 4 7 3 9 4 5 3 4 5
15 15 16 16 16 14 12 13 14 15 14 15 6 4 6 5 6 4 2 2 2 1 5 4 1 4 3 3 3 1 1 2 1 3 2 1 0 3 3 1 1 0 0 1 1 1 2 0 2 4 3 2 7 6 3 1 3 2 7 5 8 8 11 5 5 4 7 4 7 6 6 10 4 3 3 1 2 2 2 5 4 7 5 2 1 2 4
17 16 16 17 18 18 16 13 12 15 16 16 8 6 7 8 5 5 4 4 2 4 7 10 5 5 4 2 4 6 4 3 3 1 3 2 3 3 2 1 1 1 0 2 2 3 0 3 5 2 5 3 3 2 3 3 5 1 5 1 3 2 6 5 8 5 4 4 7 9 9 6 4 4 4 3 1 2 3 4 5 2 5 3 5 7 6
18 17 16 16 17 18 19 18 16 15 15 13 8 7 6 8 6 6 4 2 4 8 1 3 4 4 2 0 2 1 3 3 2 1 2 2 2 1 6 3 1 1 3 3 2 2 1 1 1 3 3 2 1 4 1 1 0 5 2 4 7 2 4 5 7 8 7 7 8 10 4 3 2 5 2 2 2 3 2 6 5 3 7 7 6 9 7
18 18 18 17 17 18 18 19 20 20 18 14 9 6 4 6 8 8 3 5 7 8 8 7 5 5 7 6 4 2 4 1 2 0 1 2 1 1 3 1 1 4 4 3 1 3 2 2 3 4 5 2 4 2 4 4 1 4 1 0 0 0 1 3 10 11 13 17 12 7 6 2 3 7 5 3 3 2 2 13 2 7 9 7 6 8 9
19 19 20 18 18 18 18 18 18 20 20 18 6 2 4 8 9 8 4 4 6 9 5 10 10 7 2 2 4 4 4 7 6 4 2 3 4 4 6 2 2 1 2 4 3 3 4 4 2 1 2 5 2 5 2 1 4 1 2 3 2 4 2 4 0 7 11 8 10 9 4 4 4 4 6 3 4 3 9 3 5 7 8 7 7 8 9
20 19 19 19 19 19 19 19 19 19 19 22 12 7 4 9 12 13 11 8 5 9 9 7 9 13 6 8 6 4 1 2 5 5 4 5 2 3 1 2 4 5 2 3 0 2 4 5 5 1 1 5 5 4 1 6 2 4 3 4 3 4 1 4 5 2 1 1 7 6 9 1 7 6 2 1 5 7 4 1 3 5 5 4 5 8 9
20 20 20 19 19 19 19 19 20 19 20 20 16 7 5 7 10 11 11 10 7 8 12 6 5 14 10 13 14 12 11 11 9 6 9 6 5 6 2 5 7 4 6 4 7 5 5 4 2 4 3 3 5 3 5 1 4 5 5 6 5 2 1 3 5 6 8 4 6 4 4 3 2 2 3 1 7 3 5 4 9 5 3 4 4 6 9
23 22 22 21 21 20 20 20 19 20 20 20 18 7 9 7 10 10 11 8 9 10 1 2 4 10 14 15 14 12 13 13 14 10 6 5 4 8 5 4 6 4 3 4 3 1 1 1 3 1 3 3 1 5 3 1 5 3 2 2 5 6 9 8 10 1 3 5 5 5 2 2 4 4 5 9 11 8 5 4 5 5 6 3 3 7 7
23 23 23 22 21 21 20 20 20 19 20 21 15 6 9 5 8 9 8 7 3 4 1 2 1 3 4 7 5 8 12 13 8 5 7 6 5 5 7 6 6 3 2 4 7 5 5 7 7 4 1 3 8 4 1 7 4 1 3 5 7 4 5 1 1 6 5 7 13 13 5 5 10 6 8 9 10 9 4 4 5 6 8 5 6 5 7
24 23 22 22 23 21 20 20 20 19 19 20 14 6 6 6 4 6 2 4 5 6 6 6 4 7 12 17 14 7 7 4 9 12 9 8 7 6 2 4 2 1 2 6 6 5 4 4 4 3 7 4 5 4 7 6 8 3 2 8 4 8 3 2 7 9 7 12 13 5 9 9 7 9 11 8 6 7 4 4 7 8 7 5 5 7 7
23 23 21 22 21 22 21 20 21 21 21 20 15 7 4 3 7 9 7 6 4 7 7 4 13 19 17 8 4 8 14 12 9 10 8 11 13 11 14 9 8 11 10 6 2 3 2 5 2 1 9 5 7 8 6 6 7 9 8 8 3 7 5 7 12 12 10 16 16 12 8 7 9 8 10 13 12 9 6 7 7 6 4 3 4 2 4
23 24 23 23 23 23 22 21 21 21 21 22 16 7 8 8 9 10 7 6 2 2 7 9 7 2 1 5 10 11 8 11 11 11 14 15 16 16 12 3 1 2 2 4 5 7 4 2 4 4 5 6 8 8 7 9 7 5 10 13 11 4 5 4 3 6 12 14 15 13 10 10 13 14 12 11 10 10 11 7 2 1 1 2 1 2 0
26 24 23 23 25 23 23 22 21 20 22 21 14 7 8 5 9 12 10 8 4 6 7 8 4 1 1 10 3 3 5 11 12 14 13 13 14 13 8 6 5 3 6 3 1 4 2 4 5 10 8 6 3 3 3 3 6 5 6 13 5 3 11 4 1 11 13 12 13 5 4 9 10 9 8 6 6 6 7 3 2 2 2 4 4 3 2
24 25 25 23 23 24 23 23 22 22 22 20 13 6 7 7 9 11 10 10 11 9 0 1 1 2 2 3 4 5 8 12 14 14 13 13 13 12 11 12 10 7 6 7 4 4 5 7 10 4 3 1 2 7 6 3 1 4 9 15 9 10 10 5 8 11 14 15 12 7 9 10 12 13 9 1 1 0 2 2 0 2 2 1 1 6 3
25 25 25 24 23 25 23 22 21 22 22 17 3 5 1 5 7 10 11 8 7 5 6 5 1 2 5 4 1 6 6 9 11 12 14 12 11 10 11 13 12 12 11 9 7 7 7 9 5 4 5 4 3 4 4 5 8 11 16 18 13 9 7 11 14 14 16 17 17 12 7 11 13 11 3 3 1 2 2 3 2 2 1 1 1 1 3
26 25 24 25 25 25 24 24 24 23 21 4 6 2 2 4 9 10 11 10 9 4 5 5 6 4 2 1 3 4 5 8 9 11 12 10 11 12 13 14 14 11 7 5 6 6 8 5 8 7 5 6 5 3 5 6 8 12 15 15 11 9 10 13 13 13 16 16 13 11 9 11 5 1 5 4 2 1 3 2 3 1 1 1 1 3 3
25 26 25 25 23 24 26 25 24 23 16 5 5 4 4 6 6 12 16 12 11 7 2 2 6 1 3 2 2 9 10 9 10 11 14 13 13 13 10 4 4 6 7 8 8 11 6 5 5 6 6 11 9 4 6 6 10 10 16 10 11 11 12 14 14 14 15 15 14 8 3 3 2 3 1 3 1 3 2 1 0 0 2 2 3 3 4
23 24 25 25 24 26 25 24 23 23 8 9 11 8 4 4 4 13 20 13 10 5 5 4 3 2 3 2 2 1 5 9 7 3 2 5 6 7 7 11 8 9 9 9 7 4 6 6 6 7 7 10 9 1 4 8 11 15 13 10 9 9 10 10 10 10 7 3 3 8 11 10 3 5 6 4 1 1 2 0 1 1 2 2 3 3 4
23 24 25 24 23 23 25 25 24 17 9 9 9 3 2 5 9 13 12 10 6 2 2 2 4 1 2 4 1 1 3 3 1 5 5 5 6 4 3 5 5 5 9 8 5 5 3 7 7 9 10 6 4 3 6 11 14 15 15 13 12 12 11 8 5 1 1 2 1 10 13 8 2 1 2 1 2 1 2 2 2 2 1 2 3 2 1
23 23 24 24 24 24 24 26 26 25 10 6 5 9 5 12 14 20 12 8 3 2 2 3 3 4 4 2 2 3 5 7 5 8 4 2 2 4 3 6 8 5 6 10 4 3 2 3 8 6 2 7 7 4 8 13 14 16 17 16 14 11 5 2 2 2 1 2 3 2 2 2 2 2 2 1 0 1 2 2 4 5 4 2 3 3 4
25 23 22 22 22 22 23 21 10 6 8 7 6 3 11 19 17 23 19 8 5 4 4 3 2 3 2 0 4 4 2 5 4 7 9 3 2 5 2 2 4 6 5 6 4 7 7 7 4 3 10 3 4 7 9 11 15 16 15 15 10 1 1 2 4 2 1 1 2 1 3 3 3 2 1 0 2 2 5 3 3 4 7 4 5 5 5
22 24 23 22 21 16 9 8 7 6 6 7 5 10 24 21 20 12 9 3 3 5 5 3 5 8 6 7 5 2 4 2 0 3 2 2 1 0 2 4 6 7 2 5 7 7 8 5 5 9 6 6 11 9 12 13 16 16 15 14 3 4 3 4 2 1 0 1 0 2 2 1 2 2 1 0 1 2 4 4 5 3 4 7 6 6 5
20 21 21 18 5 2 7 6 3 6 6 5 8 17 23 15 3 6 2 1 2 2 3 4 4 7 8 5 1 2 5 4 2 3 1 2 5 0 2 2 7 2 3 4 5 8 8 6 6 9 8 12 14 14 14 12 13 15 13 2 5 3 4 3 3 2 1 2 1 0 0 0 0 0 1 1 1 1 3 4 4 5 7 9 9 8 6
20 18 4 1 3 6 4 5 4 6 14 20 19 9 8 9 4 4 4 4 2 5 2 3 7 1 3 4 3 4 6 3 3 5 2 2 2 2 1 2 5 5 7 6 8 5 2 3 6 9 12 13 8 3 7 7 1 2 4 5 4 5 4 3 2 5 2 1 4 3 2 2 2 1 1 3 3 3 3 3 3 3 4 5 6 7 8
14 3 4 4 4 5 5 2 7 20 13 5 3 3 3 1 4 3 4 1 2 5 4 7 8 6 6 6 2 3 5 6 4 2 6 5 5 4 3 6 4 4 4 1 5 9 4 5 4 7 11 9 7 10 3 4 4 4 4 3 4 4 5 3 3 3 4 4 2 2 2 3 5 5 2 4 3 4 3 3 3 4 4 6 6 6 7
4 5 4 3 7 3 2 9 22 12 5 6 2 3 3 2 5 3 2 3 1 2 3 7 5 8 10 11 7 7 4 5 8 8 8 2 1 4 1 2 2 2 4 6 4 4 5 4 3 2 11 6 12 2 4 5 6 4 3 3 3 5 4 4 1 1 2 1 2 1 1 1 1 3 4 5 5 8 7 5 5 5 5 6 6 7 7
3 3 3 4 2 2 3 6 3 3 3 2 2 1 2 2 2 1 3 3 3 3 1 3 3 4 6 8 9 10 2 3 1 2 3 4 2 5 2 2 1 2 2 3 1 4 2 1 1 5 8 7 10 4 4 5 4 4 3 3 3 3 3 1 3 1 1 0 1 1 0 1 2 3 3 4 4 6 7 7 7 6 6 6 7 7 6
6 5 3 4 2 3 5 2 2 3 0 1 3 4 4 1 2 1 1 6 6 2 2 3 4 8 8 12 9 6 2 1 2 1 2 2 3 4 2 1 1 4 4 2 3 1 2 3 2 5 7 9 1 2 4 5 3 4 3 2 3 2 2 1 1 1 1 0 1 2 2 2 3 4 4 4 5 6 7 7 8 7 7 7 6 6 6
16 10 5 5 2 1 1 4 3 3 4 3 2 1 2 3 3 5 3 0 2 3 3 1 1 2 2 3 2 1 3 2 2 2 2 3 1 3 2 1 1 2 3 2 2 2 3 3 5 8 8 5 4 4 4 4 4 3 2 2 3 3 1 1 0 1 1 2 3 3 4 4 5 5 4 4 6 8 7 7 8 8 7 7 6 6 7
6 3 3 1 3 3 3 6 2 3 2 2 5 8 5 4 3 2 3 5 4 3 7 10 8 10 6 1 5 2 1 0 3 2 0 1 2 2 2 4 4 2 3 0 2 3 5 4 7 8 3 2 4 4 5 4 4 3 2 3 2 1 1 0 0 0 1 1 2 3 3 5 6 6 4 4 5 9 9 7 7 7 6 6 7 7 7
5 1 2 1 2 3 4 3 2 3 8 6 5 5 5 10 9 9 12 5 6 9 6 5 8 7 6 2 3 1 2 3 0 4 3 3 0 1 3 4 1 1 2 3 1 2 2 5 7 8 5 6 6 4 4 3 3 3 3 1 0 1 1 1 2 2 3 3 3 4 4 5 5 6 5 6 6 5 6 9 8 7 7 6 8 8 9
4 6 4 3 4 2 3 1 1 3 2 3 5 6 8 9 9 10 3 3 5 5 11 11 8 7 5 1 5 4 2 3 2 2 2 1 3 4 2 1 1 2 1 1 2 6 9 8 12 8 3 7 8 6 5 4 3 3 3 1 0 0 1 1 2 2 3 3 4 3 5 4 5 6 7 6 5 6 6 7 6 7 7 7 8 9 9
2 1 2 1 2 2 3 5 5 5 2 3 5 8 9 8 4 4 2 2 7 5 6 4 6 5 9 3 2 2 1 0 3 2 3 1 3 1 2 3 2 2 4 3 4 5 7 13 3 2 7 8 8 6 5 4 4 3 2 1 0 1 2 2 3 3 4 3 4 5 5 6 6 6 6 7 6 6 6 6 7 7 7 9 9 8 9
4 1 3 3 4 3 7 5 2 2 2 0 2 2 1 2 8 3 3 1 4 8 11 8 6 2 4 1 3 4 3 1 2 2 3 2 2 2 1 0 2 1 3 4 7 9 11 1 3 5 4 5 6 6 4 4 2 2 1 1 1 2 2 3 3 4 3 4 4 5 5 6 6 6 6 7 7 8 6 7 7 7 7 8 8 8 8
1 3 4 3 1 2 1 1 5 6 1 3 2 1 1 7 6 3 1 0 5 7 4 7 5 6 2 2 4 3 2 2 3 3 2 0 2 3 3 3 3 3 5 8 11 5 2 1 3 6 4 5 3 3 2 1 1 1 1 1 2 2 2 3 4 4 4 5 5 5 6 6 6 6 6 6 7 8 6 6 7 7 8 8 9 9 8
3 2 3 3 2 2 1 1 4 2 1 3 1 3 2 2 4 1 2 3 1 5 2 4 2 3 2 3 1 2 2 2 3 1 3 4 4 1 2 2 4 6 6 3 3 2 2 4 5 5 4 4 3 2 1 0 0 0 1 2 2 3 3 4 5 4 5 5 5 6 5 5 6 6 6 8 8 7 7 8 9 9 9 9 8 8 8
1 2 1 2 2 3 6 4 7 4 2 5 3 2 0 1 2 3 1 3 6 6 4 3 2 3 2 1 2 2 2 2 3 4 5 4 2 4 5 6 9 8 4 0 0 3 5 4 6 6 4 3 2 1 2 1 1 1 1 2 3 2 4 3 4 6 6 4 4 5 6 7 7 7 7 6 7 7 7 9 9 8 8 8 6 8 7
2 2 1 0 1 3 1 0 1 1 2 3 6 5 5 4 4 3 1 4 6 8 7 3 4 2 2 4 3 1 1 2 1 2 0 5 3 5 7 8 4 2 5 6 5 4 5 4 5 6 6 5 4 3 2 1 1 3 2 3 3 3 4 4 4 4 5 6 6 6 7 7 7 7 5 6 6 6 6 7 7 6 6 6 7 8 7
Wind_Direction
76 52 42 23 360 4 6 3 5 11 7 35 348 294 216 161 200 314 265 226 167 147 213 193 203 209 256 30 284 179 286 218 197 47 92 12 208 266 217 211 225 246 237 212 237 188 255 181 232 197 247 244 227 300 59 156 51 49 307 352 295 74 336 45 265 271 284 276 274 260 142 172 310 289 145 95 220 208 232 243 242 253 266 265 262 247 284
32 21 333 5 3 10 15 5 7 6 22 37 305 40 84 40 52 344 316 191 1 188 204 212 205 237 272 244 254 171 195 232 287 200 235 190 285 188 197 324 202 256 237 201 247 188 272 214 243 254 231 257 8 3 28 334 181 155 245 172 257 357 262 253 311 307 294 301 335 323 8 70 171 202 236 217 242 244 258 305 69 262 215 249 252 257 231
232 232 246 276 359 358 356 9 8 6 9 20 73 130 141 82 330 288 308 2 218 226 224 219 210 225 237 247 249 252 246 207 229 243 253 225 204 4 279 235 52 262 49 302 335 240 221 295 290 209 290 254 358 2 36 38 109 41 328 115 55 235 205 223 261 266 272 275 264 266 273 245 267 293 296 313 207 254 285 268 264 260 182 210 235 259 247
226 231 268 303 332 1 1 5 12 10 14 32 69 240 65 185 134 292 5 328 319 276 97 103 208 210 230 248 248 257 258 274 227 174 254 204 214 224 214 232 104 175 283 263 237 265 176 184 253 41 274 293 315 234 353 62 75 337 99 71 75 195 293 232 246 248 252 258 280 212 130 280 274 262 271 277 270 219 228 270 263 251 266 266 260 275 278
248 245 235 249 305 344 25 346 5 9 12 43 81 354 131 277 109 168 237 346 295 272 2 260 181 205 180 228 192 239 235 258 296 178 221 286 186 251 201 187 183 246 206 220 255 220 263 214 215 234 252 246 234 334 110 104 103 195 157 150 88 140 233 212 250 248 256 266 270 279 283 275 271 271 268 275 278 284 280 256 256 272 293 264 254 261 269
253 253 256 252 255 273 303 320 5 350 15 33 64 56 327 85 255 96 227 139 228 173 257 243 256 263 305 243 338 298 297 45 239 349 157 311 225 178 328 198 212 223 218 252 260 203 246 224 257 272 226 249 324 305 301 185 316 139 168 154 182 200 258 261 261 261 260 261 267 268 272 268 276 278 282 281 281 270 257 262 269 277 256 275 290 296 285
249 250 251 235 231 233 242 260 317 12 83 86 96 91 289 124 304 131 329 131 297 98 48 24 218 246 238 275 239 254 251 257 235 187 315 40 306 173 254 214 234 216 239 219 232 231 277 262 237 225 236 244 263 272 297 243 50 66 23 351 172 92 244 254 248 267 262 264 265 271 271 278 273 263 261 260 256 258 258 266 269 259 260 269 276 270 267
244 248 242 247 239 223 230 238 202 144 101 74 59 30 115 323 74 294 28 92 65 35 28 44 31 224 203 226 211 242 241 255 264 209 212 253 264 164 240 294 348 341 333 239 234 238 250 238 266 322 25 306 219 253 215 227 341 66 123 59 299 186 274 274 314 293 251 237 247 242 245 269 277 275 276 270 268 268 271 276 270 275 274 265 262 264 268
242 243 243 236 232 226 225 199 149 138 100 28 85 294 98 206 78 115 109 31 200 81 161 135 158 213 241 234 247 252 237 252 90 253 12 225 237 48 85 359 329 32 47 306 303 39 59 38 218 158 81 191 15 63 310 56 324 331 58 28 312 333 264 351 1 272 264 249 258 264 283 278 276 277 274 266 262 268 260 255 253 259 263 265 270 266 261
237 238 236 234 232 234 223 226 200 156 117 106 97 65 251 56 304 86 95 88 188 127 110 152 118 232 231 193 234 213 61 1 355 298 86 65 95 91 92 359 89 302 353 345 113 100 109 182 250 261 263 223 250 209 244 281 262 316 356 310 89 246 311 314 296 274 269 263 284 330 3 299 274 253 249 255 262 256 259 258 257 250 264 272 262 265 33
223 225 229 231 229 233 227 218 222 145 111 123 112 222 130 145 128 38 44 110 304 147 136 248 164 233 98 7 89 22 87 30 24 176 239 116 268 74 20 42 21 254 254 183 151 199 220 222 222 204 216 223 240 237 230 224 202 203 187 69 266 194 222 252 254 253 268 283 318 36 303 252 251 260 234 221 245 251 257 259 258 277 181 247 215 144 162
225 226 224 222 220 225 224 218 216 166 147 171 131 175 195 126 79 78 84 158 259 115 175 210 179 283 88 270 90 347 35 4 343 22 246 299 277 342 191 234 213 267 165 132 207 213 243 251 225 250 226 241 241 249 247 245 241 208 199 206 222 232 253 261 220 258 266 280 356 296 260 261 300 98 255 338 291 243 250 270 198 179 102 114 106 132 144
235 227 226 228 224 218 218 222 219 206 159 150 130 178 232 153 117 133 141 152 237 156 138 254 252 98 95 37 22 202 231 244 125 280 270 264 291 295 242 207 225 242 95 279 54 356 345 293 296 265 262 253 245 235 243 242 244 234 214 206 206 223 233 249 253 206 14 64 231 256 269 80 293 282 324 295 78 102 79 285 205 179 162 140 156 185 183
248 251 241 232 234 235 224 217 215 218 174 150 152 183 150 147 136 139 146 156 245 195 204 262 269 268 252 251 230 271 314 294 265 208 252 250 212 252 285 223 218 39 29 63 48 199 359 276 310 330 262 190 306 267 231 238 234 233 228 213 209 218 232 196 265 193 245 243 234 250 328 312 282 277 217 170 187 185 172 233 262 178 187 147 162 202 209
242 238 235 236 235 235 244 229 215 213 192 163 154 131 157 168 141 139 202 136 223 271 163 203 216 197 191 224 193 170 183 263 58 283 220 324 112 228 198 236 17 45 106 88 318 36 170 136 323 271 320 278 277 264 10 323 319 266 249 237 212 214 208 217 214 278 202 248 272 300 286 262 272 230 271 303 170 134 294 96 298 156 216 119 148 221 237
240 238 236 235 234 235 234 236 238 221 212 171 153 165 182 176 141 119 138 143 150 269 241 208 183 138 146 200 171 164 202 175 190 137 322 269 246 307 289 326 301 119 81 98 174 112 186 125 231 153 240 227 261 59 299 25 327 312 40 5 179 240 221 220 215 254 266 238 232 246 260 260 134 221 189 250 168 113 217 77 267 154 177 227 179 238 238
243 239 239 236 234 232 230 231 230 229 240 175 167 169 198 170 152 159 130 166 177 217 84 117 159 163 123 146 116 225 198 200 170 117 279 250 221 288 299 321 319 134 185 75 261 95 1 254 161 175 282 148 60 225 319 26 304 322 338 39 58 99 210 196 230 232 227 250 254 253 233 251 217 174 216 234 112 152 62 326 309 107 221 221 188 217 234
249 248 242 240 238 235 230 230 230 227 230 201 158 177 191 182 174 138 158 176 212 247 209 166 127 166 190 183 182 199 87 66 57 120 141 226 60 263 260 345 261 286 153 109 202 89 199 169 195 241 233 253 156 52 252 154 153 220 249 96 267 207 319 229 226 227 230 233 250 251 275 275 183 189 184 161 169 76 256 260 220 197 212 231 193 219 226
243 243 243 240 243 242 237 232 229 229 228 219 159 140 208 177 179 165 156 182 206 240 187 180 196 199 207 103 185 165 187 168 160 121 251 11 253 208 165 240 143 242 354 158 52 160 169 231 49 153 185 283 77 200 230 81 234 9 112 334 324 289 128 302 7 230 246 252 250 257 273 240 179 263 143 191 83 223 222 218 159 178 213 233 206 218 230
241 245 246 240 242 243 241 237 233 231 227 226 200 192 183 172 183 179 180 202 206 238 232 186 185 205 198 191 198 159 172 85 188 157 175 197 257 77 6 291 316 91 353 95 45 215 117 212 195 142 240 225 249 167 14 232 195 199 233 203 205 214 127 237 226 234 20 197 259 270 268 333 128 168 61 299 128 235 181 279 262 206 229 206 218 212 238
251 245 242 243 238 239 243 241 239 236 232 226 216 200 218 182 186 195 200 198 205 237 250 205 167 207 197 212 209 197 179 199 186 192 215 192 194 104 166 207 212 138 204 157 180 215 167 230 213 191 224 164 249 70 209 163 315 275 197 232 237 214 265 250 257 180 246 213 211 210 219 202 232 105 180 228 197 231 301 320 298 275 221 229 216 224 224
246 249 250 246 246 239 237 240 239 238 235 233 225 187 220 191 182 195 209 200 208 221 235 276 201 212 209 211 211 200 203 210 207 183 164 202 218 194 200 145 187 148 207 123 59 1 329 167 39 70 253 248 22 218 155 336 249 257 355 70 322 202 202 212 241 245 148 208 240 235 221 212 224 178 239 259 271 268 254 238 248 273 281 197 200 246 248
244 242 243 245 246 247 243 240 238 236 235 234 229 179 218 164 184 194 152 208 266 331 339 241 302 303 306 261 235 200 209 216 198 171 179 188 225 229 207 203 232 197 173 173 178 174 177 137 216 163 355 205 197 242 269 195 256 196 219 223 229 256 206 292 12 251 255 250 252 269 279 259 274 239 227 247 261 263 222 212 248 244 242 224 224 245 254
243 243 243 242 241 241 242 243 241 239 236 235 228 135 217 199 151 102 117 207 188 246 248 218 218 236 227 235 221 206 218 202 187 202 202 195 212 245 279 229 155 142 209 208 175 173 192 156 215 143 232 217 101 209 229 243 223 195 192 271 238 245 212 152 237 269 280 266 265 268 264 266 265 268 272 260 236 260 260 213 223 254 256 249 235 238 253
247 243 240 243 242 239 237 237 239 239 239 238 234 196 149 148 155 163 155 186 204 195 234 195 216 228 234 234 188 197 212 202 198 199 182 190 208 213 226 204 177 195 216 204 142 97 71 191 246 174 233 227 142 243 200 233 261 154 226 242 276 284 164 214 244 256 241 260 266 262 252 248 262 265 275 278 282 274 245 228 238 245 267 274 279 264 258
244 244 239 237 238 238 237 237 237 238 239 235 228 171 184 195 171 173 179 215 205 172 226 235 258 304 127 155 212 218 179 188 197 197 199 203 209 216 224 90 275 172 149 132 136 203 189 156 213 221 219 270 171 221 224 195 232 184 203 239 218 219 90 221 188 229 250 259 262 267 272 269 267 263 255 255 262 272 277 273 265 261 278 332 1 58 17
245 241 239 239 241 240 238 237 235 237 241 239 233 177 181 174 168 175 183 176 186 268 210 238 221 274 251 211 214 96 149 182 198 206 212 215 218 223 219 219 192 160 177 155 61 168 118 204 186 231 211 237 178 224 208 258 204 224 238 252 233 205 243 209 164 264 264 257 260 248 273 274 265 254 254 254 248 248 263 302 26 32 30 13 351 352 44
245 246 241 238 240 242 238 236 233 234 236 238 238 189 168 174 194 191 193 181 189 231 5 306 272 250 68 298 242 189 186 187 193 201 209 214 214 216 213 218 215 208 200 183 202 178 197 200 228 226 232 295 224 252 225 269 303 257 244 251 222 219 235 195 224 239 259 261 257 239 240 261 262 270 279 79 12 163 241 312 81 108 103 67 37 334 328
242 240 241 238 237 242 239 237 235 238 238 237 122 97 113 213 196 198 196 196 193 227 257 253 61 68 233 246 125 193 214 185 193 199 209 213 206 211 213 217 214 218 212 204 213 205 204 224 204 193 197 200 134 238 123 225 219 232 237 244 241 231 227 230 240 249 259 268 272 267 248 258 266 269 291 110 341 115 110 130 119 132 142 121 105 210 282
247 244 242 240 238 237 235 234 234 231 230 190 93 105 189 232 198 198 193 187 183 187 208 215 229 245 9 81 238 205 189 190 198 202 208 200 201 207 212 213 221 216 210 209 200 220 210 217 216 220 212 150 182 214 196 217 234 242 248 250 250 245 229 235 237 235 248 255 265 268 260 258 269 59 104 115 89 91 147 165 152 164 225 207 249 272 254
247 242 239 239 237 238 237 233 231 230 222 114 143 138 187 246 204 178 189 190 179 175 211 204 239 48 317 248 170 199 188 182 193 204 210 205 210 209 216 190 239 185 210 212 217 226 216 222 202 215 183 192 205 200 224 231 249 253 252 242 243 240 237 239 238 237 246 254 261 277 319 274 114 82 104 96 72 107 110 153 255 178 263 296 268 265 277
247 249 245 239 237 241 240 235 230 228 194 154 192 192 177 204 190 177 186 177 151 153 166 204 253 203 241 251 212 256 183 190 184 167 181 162 219 204 210 191 210 190 208 223 222 235 213 213 219 215 206 205 205 228 211 231 243 248 257 248 238 237 234 238 244 249 248 297 330 297 280 269 112 216 243 108 139 100 135 172 269 286 318 300 302 288 277
244 242 243 242 239 240 241 238 231 224 193 211 229 254 146 143 133 155 164 135 137 180 160 182 201 213 238 235 352 283 151 81 116 147 228 169 207 126 219 175 213 212 212 227 197 230 190 205 211 234 226 137 190 210 224 230 240 251 258 260 257 248 245 241 244 320 73 20 164 225 256 267 189 153 123 159 94 95 30 356 344 337 320 328 311 309 324
246 241 241 241 238 236 236 236 235 230 199 126 220 216 188 141 147 147 139 137 140 156 143 181 191 208 236 357 45 276 154 159 183 165 236 198 166 144 184 161 187 206 191 206 198 213 215 171 210 227 135 213 211 222 235 241 244 254 257 256 256 260 268 224 109 138 37 60 33 42 54 132 103 58 71 96 42 45 64 28 9 349 328 327 335 353 331
245 243 237 238 242 244 244 242 238 211 201 205 223 185 165 159 154 159 153 158 133 198 173 228 160 195 215 300 202 262 151 97 169 190 195 239 133 168 141 111 193 196 217 157 231 214 224 215 142 150 225 195 209 228 237 246 245 246 250 257 253 186 56 278 247 140 51 57 25 74 58 52 113 160 174 320 349 358 21 359 353 349 331 334 330 332 347
249 245 242 237 237 239 244 231 211 186 180 205 217 172 172 173 164 172 174 184 147 172 176 204 167 213 196 228 229 246 118 231 142 89 156 124 8 155 149 174 225 213 123 169 226 201 219 155 102 233 201 195 225 218 236 233 243 249 251 251 241 149 203 240 136 105 331 357 152 110 89 51 131 170 131 276 358 41 21 341 331 342 319 312 321 329 330
243 244 244 245 227 167 212 215 165 202 225 166 149 158 166 159 90 106 88 230 296 36 148 147 179 209 183 210 53 241 127 212 144 90 102 152 188 244 135 180 216 148 168 212 206 217 224 134 203 234 218 227 235 231 236 241 241 245 254 218 120 135 127 120 113 119 77 86 116 239 54 69 21 160 141 38 29 4 349 340 344 341 324 315 316 321 315
245 242 217 136 130 209 209 211 192 181 133 133 137 133 166 153 184 162 153 191 203 112 229 126 225 167 67 133 242 173 145 230 109 165 259 238 144 262 221 207 218 183 223 204 226 150 84 156 212 218 240 237 250 238 227 228 207 73 93 115 127 128 128 114 145 127 123 291 278 233 266 245 247 225 120 301 324 311 291 298 311 285 283 290 293 302 312
242 219 183 190 161 221 203 223 163 145 125 120 59 117 196 190 130 174 193 149 170 191 169 175 208 156 159 191 191 144 175 167 171 189 191 196 151 251 142 193 209 187 258 106 260 131 207 213 210 224 244 234 247 246 164 104 84 84 83 83 111 109 111 108 95 135 167 188 166 154 153 223 260 275 307 288 284 280 292 304 298 297 290 289 293 299 303
130 198 192 153 211 191 113 163 148 132 127 148 191 132 194 184 168 201 119 102 278 268 151 215 188 188 187 202 179 217 150 141 175 208 198 227 157 173 218 69 276 109 228 186 234 93 168 222 250 209 246 218 239 217 101 142 124 104 84 87 92 92 95 103 82 58 93 46 99 136 39 329 262 270 292 302 307 306 310 314 295 288 286 283 291 299 297
167 112 138 190 169 129 141 116 27 47 108 115 82 304 121 201 213 161 132 194 170 232 187 175 117 175 192 197 199 214 167 87 5 86 119 185 186 94 109 177 183 138 227 198 231 88 79 78 268 201 233 222 228 153 145 105 122 106 107 91 92 99 94 51 78 27 67 344 31 322 322 279 275 270 262 266 275 274 274 276 278 275 281 289 291 286 289
184 166 169 106 96 111 106 102 142 99 8 244 140 194 171 178 83 38 172 158 204 164 274 166 193 182 206 189 202 176 224 124 131 113 113 214 197 155 215 284 310 178 224 198 107 69 100 228 225 259 245 233 145 145 140 129 116 129 120 120 107 100 77 48 63 354 85 298 304 307 289 280 272 267 260 266 267 270 277 285 287 285 282 279 282 286 289
108 106 106 102 98 262 138 164 188 143 172 172 125 206 160 132 206 151 211 258 314 111 236 48 246 69 341 63 28 18 160 145 135 176 122 203 108 78 145 201 114 256 208 49 80 123 179 221 229 239 238 227 164 164 146 137 128 137 118 110 109 83 81 92 178 285 294 301 279 282 279 273 268 267 270 265 276 282 277 272 276 283 284 285 284 288 288
107 99 80 85 133 240 135 217 147 83 200 175 172 187 150 158 231 104 132 210 174 213 197 160 193 152 196 178 144 137 48 117 141 83 335 271 101 183 155 206 204 239 65 39 132 179 215 233 215 234 222 147 163 164 154 152 149 136 124 126 103 36 110 54 357 17 285 283 272 276 284 286 284 282 281 272 263 273 281 279 273 275 281 288 288 287 281
116 66 92 67 185 202 106 236 98 162 198 189 177 186 173 189 184 180 190 194 148 192 165 133 137 166 155 220 43 308 126 198 93 125 210 133 136 212 142 230 173 51 159 205 192 301 3 264 253 245 211 183 174 174 146 134 144 146 157 111 63 102 63 12 318 315 302 294 285 283 280 274 280 276 270 266 263 256 271 284 289 293 290 288 285 286 282
157 169 146 158 204 200 158 227 123 234 264 160 199 187 186 198 170 197 218 97 136 147 154 173 156 126 126 248 141 187 117 121 118 201 137 94 135 231 210 19 86 145 18 53 179 210 222 236 239 242 138 151 149 156 148 145 118 109 101 122 191 31 298 318 287 284 284 296 293 293 288 291 287 294 289 281 280 279 274 276 283 282 286 289 283 278 280
114 117 108 131 162 223 112 188 208 205 186 205 195 187 191 177 183 148 133 141 151 166 98 84 122 162 146 190 89 359 40 71 141 218 89 108 190 219 86 126 213 185 180 217 219 240 255 239 231 94 147 141 144 147 144 145 136 137 149 164 235 274 278 279 286 284 283 289 293 295 295 292 286 281 283 286 277 272 275 279 282 281 278 272 275 277 279
183 161 113 165 200 163 187 213 131 79 18 168 295 344 287 132 122 197 242 246 146 133 132 126 111 74 50 303 76 166 166 197 82 282 156 202 55 54 176 174 235 244 189 181 224 224 234 248 176 168 138 141 136 139 145 144 149 154 164 188 222 257 272 273 281 277 286 289 287 285 281 280 275 277 280 283 289 288 287 282 279 277 273 272 273 272 272
85 130 169 186 189 147 184 54 123 166 262 338 299 332 153 156 184 110 124 247 135 145 144 121 159 109 172 144 136 146 235 207 145 211 95 189 156 203 170 221 182 246 247 197 230 236 240 174 118 107 111 106 114 113 124 139 138 168 185 218 243 247 267 275 273 283 289 282 271 273 276 281 286 289 287 295 295 293 288 284 281 278 273 268 269 269 272
93 63 49 84 57 345 244 96 92 201 318 350 321 184 255 151 120 195 221 94 85 104 140 94 92 90 167 120 162 161 194 170 173 125 115 204 198 215 82 226 224 198 236 224 221 216 139 107 117 113 112 111 100 130 114 260 202 248 264 254 285 292 286 277 288 284 274 268 271 274 280 291 291 292 290 288 286 291 294 289 281 274 273 266 260 259 261
354 78 129 0 138 189 140 156 175 202 247 238 197 254 75 134 126 169 248 129 133 95 66 127 159 107 122 83 132 142 229 132 111 186 170 194 150 149 193 210 225 210 217 244 273 123 138 139 122 134 130 135 133 131 181 181 208 251 300 299 297 294 283 267 259 267 275 280 291 305 307 296 285 283 283 288 288 289 290 285 275 263 260 265 261 256 257
70 69 175 111 19 21 27 164 45 133 178 169 152 200 156 181 185 188 197 147 151 151 178 163 109 125 117 188 207 175 45 51 195 71 29 261 161 166 210 205 224 208 173 149 154 143 132 159 153 147 159 156 164 184 162 157 260 293 280 282 269 267 274 277 280 292 306 313 312 303 289 283 285 283 283 282 282 290 281 279 280 278 271 263 263 260 257